Location: Bukit Lungun
(2.6833°N, 113.9667°E)
Time: 13:18:25
(UTC+00:00)

Cosmos 1408 Rocket - Pass Details

Date: 02 March 2021
Orbit: 600 x 632 km, 82.6° (Epoch: 14 April)

Event Time Altitude Azimuth Distance (km) Brightness Sun altitude
Exits shadow 20:56:55 31° 10° (N) 1,077 4.8 -24.9°
Maximum altitude 20:58:55 70° 86° (E) 650 3.7 -24.4°
Drops below altitude 10° 21:03:13 10° 170° (S) 1,952 6.3 -23.4°
Sets 21:05:26 0° 172° (S) 2,853 7.1 -22.8°
